Regional Weather Roundup
Issued by NWS

Home | Current Version | Previous Version | Graphics & Text | Print | Product List | Glossary On
Versions: 1 2 3 4 5 6 7 8 9 10 11 12 13 14 15 16 17 18 19 20 21 22 23 24 25 26 27 28 29 30 31 32 33 34 35 36 37 38 39 40 41 42 43 44 45 46 47 48 49 50
000
ASUS43 KOAX 192110
RWRNE

WEATHER ROUNDUP FOR NEBRASKA
NATIONAL WEATHER SERVICE OMAHA NE
400 PM CDT SAT APR 19 2014

NOTES: SATELLITE DATA IS BEING USED TO AUGMENT CLOUD COVER ABOVE
       12000 FEET.
       "FAIR" INDICATES FEW OR NO CLOUDS BELOW 12,000 FEET WITH NO
       SIGNIFICANT WEATHER AND/OR OBSTRUCTIONS TO VISIBILITY.

  * THESE STATIONS DO NOT REPORT WEATHER SUCH AS RAIN...SNOW OR FOG.

NEZ001>004-019>022-054>056-192200-
NEBRASKA PANHANDLE

CITY           SKY/WX    TMP DP  RH WIND       PRES   REMARKS
SCOTTSBLUFF    CLOUDY    64  31  28 S12       30.03F
ALLIANCE       PTSUNNY   63  28  26 E12G17    30.03F
CHADRON        PTSUNNY   63  29  27 SE3       30.02F
KIMBALL        CLOUDY    59  30  33 SE13      30.05S
SIDNEY         CLOUDY    62  34  35 E8        30.06F
$$

NEZ057>060-069>072-079>082-192200-
SOUTHWEST NEBRASKA

CITY           SKY/WX    TMP DP  RH WIND       PRES   REMARKS
NORTH PLATTE   PTSUNNY   68  43  40 NE8G20    29.99F
IMPERIAL       CLOUDY    68  40  35 NE16      30.00F
LEXINGTON      MOSUNNY   69  50  50 NE10G16   29.97F
MCCOOK         PTSUNNY   70  49  47 NE18G26   29.95F
OGALLALA       PTSUNNY   68  34  28 E12       30.02F
$$

NEZ005>010-023>029-035>040-094-192200-
NORTH CENTRAL NEBRASKA

CITY           SKY/WX    TMP DP  RH WIND       PRES   REMARKS
VALENTINE      PTSUNNY   63  16  16 E5        30.03F
AINSWORTH      PTSUNNY   67  25  20 E7G17     30.02F
BROKEN BOW     CLOUDY    67  47  48 E12       29.99F
O`NEILL        PTSUNNY   66  36  32 NE9       30.02S
ORD            PTSUNNY   68  47  46 CALM      29.98F
THEDFORD       PTSUNNY   70  31  23 E9G16     30.03S
$$

NEZ041-046>049-061>064-073>077-083>087-192200-
SOUTH CENTRAL NEBRASKA

CITY           SKY/WX    TMP DP  RH WIND       PRES   REMARKS
GRAND ISLAND   PTSUNNY   75  49  39 SW8       29.96F
AURORA         CLOUDY    74  50  42 S9        29.95F
HASTINGS       CLOUDY    74  48  39 VRB3      29.94F
HEBRON         PTSUNNY   78  47  33 S21G26    29.95F
HOLDREGE       PTSUNNY   71  48  44 NE5       29.95F
KEARNEY *      CLOUDY    72  48  43 E5        29.96F
YORK           CLOUDY    75  48  38 S17       29.95F
$$

NEZ011>018-030>034-042>045-192200-
NORTHEAST NEBRASKA

CITY           SKY/WX    TMP DP  RH WIND       PRES   REMARKS
NORFOLK        CLOUDY    72  47  40 SW7       29.97S
ALBION         CLOUDY    69  47  44 CALM      29.99S
BLAIR          CLOUDY    76  44  31 S18G26    29.98F
COLUMBUS *     CLOUDY    73  48  40 S12G21    29.97F
FREMONT        CLOUDY    76  44  31 S13G22    29.98S
TEKAMAH        CLOUDY    78  45  30 S17       29.97F
$$

NEZ050>053-065>068-078-088>093-192200-
SOUTHEAST NEBRASKA

CITY           SKY/WX    TMP DP  RH WIND       PRES   REMARKS
LINCOLN        PTSUNNY   81  47  30 S18G29    29.97F
OMAHA EPPLEY   CLOUDY    78  43  28 S17G31    29.98F
BEATRICE       SUNNY     80  47  31 S18G29    29.97F
NEBRASKA CITY  PTSUNNY   78  44  29 S24       30.00F
PLATTSMOUTH    PTSUNNY   80  38  22 S23       29.99F
$$

NEZ044-045-051>053-067-192200-
OMAHA AREA

CITY           SKY/WX    TMP DP  RH WIND       PRES   REMARKS
OMAHA EPPLEY   CLOUDY    78  43  28 S17G31    29.98F
BLAIR          CLOUDY    76  44  31 S18G26    29.98F
FREMONT        CLOUDY    76  44  31 S13G22    29.98S
MILLARD        PTSUNNY   77  46  32 S14G20    29.98S
OFFUTT AFB     PTSUNNY   79  45  30 S17G23    29.98F
PLATTSMOUTH    PTSUNNY   80  38  22 S23       29.99F
WAHOO          CLOUDY    78  42  27 S21G28    29.97F
$$



USA.gov is the U.S. government's official web portal to all federal, state and local government web resources and services.